Weather History for 94287 - June, 2013

Change the Weather History Date:

Tuesday, June 11, 2013

  Actual Average Record
Temperature  
Mean Temperature 66 °F -  
Max Temperature 79 °F 78 °F - ()
Min Temperature 53 °F 63 °F - ()
Cooling Degree Days 1    
Growing Degree Days 16 (Base 50)    
Moisture  
Dew Point 67 °F    
Average Humidity 82    
Maximum Humidity 100    
Minimum Humidity 56    
Precipitation  
Precipitation 0.00 in 0.05 in - ()
Sea Level Pressure  
Sea Level Pressure 29.92 in    
Wind  
Wind Speed 10 mph ()    
Max Wind Speed 15 mph    
Max Gust Speed -    
Visibility 6.5 miles    
Events Rain    
T = Trace of Precipitation, MM = Missing Value Source: Averaged Metar Reports

Daily Weather History Graph

Daily Weather History Graph

Search for Another Location

Airport or City:

Trip Planner

Search our weather history database for the weather conditions in past years. The results will help you decide how hot, cold, wet, or windy it might be!

Date:

Astronomy

Jun. 11, 2013 Rise Set
Actual Time 6:42 AM AEST 5:50 PM AEST
Civil Twilight 6:18 AM AEST 6:14 PM AEST
Nautical Twilight 5:52 AM AEST 6:41 PM AEST
Astronomical Twilight 5:25 AM AEST 7:07 PM AEST
Moon 8:25 AM AEST (6/11) 8:01 PM AEST (6/11)
Length of Visible Light 11h 55m
Length of Day
11h 08m
Waxing Crescent, 5% of the Moon is Illuminated
Jun 11
Waxing Crescent
Jun 17
First Quarter
Jun 23
Full
Jun 30
Last Quarter
Jul 8
New

Hourly Weather History & Observations

Time (AEST) Temp. Dew Point Humidity Pressure Visibility Wind Dir Wind Speed Gust Speed Precip Events Conditions
12:00 AM 72 °F 68 °F 85% 29.95 in - South 12.7 mph - -   Overcast
12:00 AM 71.6 °F 68.0 °F 88% 29.95 in 6.2 mi South 12.7 mph - N/A   Mostly Cloudy
1:00 AM 71 °F 69 °F 89% 29.94 in - South 10.4 mph - -  
1:00 AM 71.6 °F 68.0 °F 88% 29.92 in 6.2 mi South 10.4 mph - N/A Rain Light Rain Showers
1:30 AM 71.6 °F 68.0 °F 88% 29.92 in 5.0 mi South 12.7 mph - N/A Rain Light Rain Showers
2:00 AM 71.6 °F 68.0 °F 88% 29.92 in 6.2 mi South 12.7 mph - N/A   Mostly Cloudy
2:30 AM 71.6 °F 68.0 °F 88% 29.89 in 6.2 mi South 11.5 mph - N/A   Scattered Clouds
3:00 AM 71.6 °F 68.0 °F 88% 29.89 in 6.2 mi South 11.5 mph - N/A   Mostly Cloudy
3:30 AM 71.6 °F 68.0 °F 88% 29.89 in 3.7 mi South 12.7 mph - N/A Rain Light Rain Showers
3:49 AM 69.8 °F 68.0 °F 94% 29.89 in 2.5 mi SSE 13.8 mph - N/A Rain Light Rain Showers
4:00 AM 69.8 °F 69.8 °F 100% 29.89 in 3.1 mi South 12.7 mph - N/A Rain Light Rain Showers
4:30 AM 69.8 °F 68.0 °F 94% 29.89 in 3.7 mi South 10.4 mph - N/A Rain Light Rain Showers
5:00 AM 69.8 °F 68.0 °F 94% 29.89 in 3.7 mi South 10.4 mph - N/A Rain Light Rain Showers
5:26 AM 69.8 °F 68.0 °F 94% 29.92 in 5.0 mi South 6.9 mph - N/A Rain Light Rain Showers
5:34 AM 69.8 °F 68.0 °F 94% 29.89 in 5.0 mi South 8.1 mph - N/A Rain Light Rain Showers
6:00 AM 70 °F 68 °F 91% 29.91 in 12 mi South 11.5 mph - - Rain Light Rain Showers
6:00 AM 69.8 °F 68.0 °F 94% 29.92 in 6.2 mi South 11.5 mph - N/A   Mostly Cloudy
6:30 AM 69.8 °F 68.0 °F 94% 29.92 in 5.6 mi South 12.7 mph - N/A Rain Light Rain Showers
7:00 AM 71 °F 68 °F 86% 29.93 in - South 10.4 mph - -  
7:00 AM 71.6 °F 68.0 °F 88% 29.92 in 6.2 mi South 10.4 mph - N/A Rain Light Rain Showers
7:30 AM 71.6 °F 68.0 °F 88% 29.92 in 6.2 mi South 8.1 mph - N/A   Mostly Cloudy
8:00 AM 71.6 °F 68.0 °F 88% 29.92 in 6.2 mi South 12.7 mph - N/A   Mostly Cloudy
8:30 AM 71.6 °F 68.0 °F 88% 29.95 in 6.2 mi South 12.7 mph - N/A Rain Light Rain Showers
8:53 AM 71.6 °F 68.0 °F 88% 29.95 in 6.2 mi South 8.1 mph - N/A   Mostly Cloudy
9:00 AM 72 °F 69 °F 85% 29.96 in 12 mi South 8.1 mph - - Rain Light Rain Showers
9:00 AM 71.6 °F 68.0 °F 88% 29.95 in 6.2 mi South 8.1 mph - N/A   Mostly Cloudy
9:30 AM 73.4 °F 68.0 °F 83% 29.95 in 6.2 mi South 9.2 mph - N/A   Mostly Cloudy
10:00 AM 73 °F 69 °F 84% 29.97 in - SSE 9.2 mph - -  
10:00 AM 73.4 °F 69.8 °F 88% 29.95 in 6.2 mi SSE 9.2 mph - N/A   Mostly Cloudy
10:30 AM 73.4 °F 69.8 °F 88% 29.95 in 6.2 mi South 6.9 mph - N/A   Mostly Cloudy
11:00 AM 77.0 °F 69.8 °F 78% 29.95 in 6.2 mi South 6.9 mph - N/A   Mostly Cloudy
11:30 AM 77.0 °F 68.0 °F 74% 29.95 in 6.2 mi SE 12.7 mph - N/A   Mostly Cloudy
12:00 PM 77 °F 69 °F 70% 29.95 in 16 mi SE 12.7 mph - -   Partly Cloudy
12:00 PM 77.0 °F 69.8 °F 78% 29.95 in 6.2 mi SE 12.7 mph - N/A   Mostly Cloudy
12:30 PM 78.8 °F 68.0 °F 69% 29.92 in 6.2 mi SE 11.5 mph - N/A   Mostly Cloudy
1:00 PM 79 °F 69 °F 63% 29.92 in - SE 11.5 mph - -  
1:00 PM 78.8 °F 68.0 °F 69% 29.92 in 6.2 mi SE 11.5 mph - N/A   Mostly Cloudy
1:30 PM 78.8 °F 68.0 °F 69% 29.89 in 6.2 mi SE 15.0 mph - N/A   Mostly Cloudy
2:00 PM 78.8 °F 66.2 °F 65% 29.89 in 6.2 mi SE 15.0 mph - N/A   Mostly Cloudy
2:30 PM 78.8 °F 66.2 °F 65% 29.89 in 6.2 mi SE 15.0 mph - N/A   Mostly Cloudy
3:00 PM 78 °F 66 °F 59% 29.88 in 19 mi SE 12.7 mph - -   Partly Cloudy
3:00 PM 78.8 °F 66.2 °F 65% 29.89 in 6.2 mi SE 12.7 mph - N/A   Mostly Cloudy
3:30 PM 78.8 °F 66.2 °F 65% 29.86 in 6.2 mi SE 10.4 mph - N/A   Scattered Clouds
4:00 PM 78 °F 65 °F 56% 29.88 in - SE 12.7 mph - -  
4:00 PM 78.8 °F 64.4 °F 61% 29.86 in 6.2 mi SE 12.7 mph - N/A   Mostly Cloudy
4:30 PM 77.0 °F 64.4 °F 65% 29.86 in 6.2 mi SE 10.4 mph - N/A   Mostly Cloudy
5:00 PM 77.0 °F 66.2 °F 69% 29.89 in 6.2 mi SE 9.2 mph - N/A   Mostly Cloudy
5:30 PM 73.4 °F 68.0 °F 83% 29.89 in 6.2 mi SSE 4.6 mph - N/A   Mostly Cloudy
6:30 PM 71.6 °F 66.2 °F 83% 29.89 in 6.2 mi SSE 5.8 mph - N/A   Overcast
7:00 PM 53 °F 48 °F 76% 29.98 in - SSW 3.5 mph - -  
7:30 PM 71.6 °F 68.0 °F 88% 29.92 in 6.2 mi South 6.9 mph - N/A   Partly Cloudy
8:00 PM 71.6 °F 66.2 °F 83% 29.92 in 6.2 mi South 8.1 mph - N/A   Partly Cloudy
8:30 PM 71.6 °F 66.2 °F 83% 29.92 in 6.2 mi South 8.1 mph - N/A   Partly Cloudy
9:00 PM 72 °F 65 °F 74% 29.94 in - South 9.2 mph - -  
9:00 PM 71.6 °F 66.2 °F 83% 29.92 in 6.2 mi South 9.2 mph - N/A   Partly Cloudy
9:30 PM 71.6 °F 66.2 °F 83% 29.92 in 6.2 mi South 9.2 mph - N/A   Partly Cloudy
10:00 PM 71 °F 66 °F 80% 29.95 in - SSE 9.2 mph - -  
10:00 PM 71.6 °F 66.2 °F 83% 29.92 in 6.2 mi SSE 9.2 mph - N/A   Partly Cloudy
10:30 PM 71.6 °F 66.2 °F 83% 29.92 in 6.2 mi South 10.4 mph - N/A   Scattered Clouds
11:00 PM 71.6 °F 66.2 °F 83% 29.92 in 6.2 mi South 10.4 mph - N/A   Scattered Clouds
11:30 PM 69.8 °F 66.2 °F 88% 29.92 in 6.2 mi South 6.9 mph - N/A   Partly Cloudy